Port Heiden, AK

7:13 AM AKDT on May 28, 2017 (GMT -0800)
Port Heiden

Weather History for PAPH - March, 2013

Change the Weather History Date:

Friday, March 15, 2013

  Actual Average Record
Temperature  
Mean Temperature 19 °F -  
Max Temperature 30 °F 30 °F 44 °F (2002)
Min Temperature 12 °F 19 °F -2 °F (2012)
Degree Days  
Heating Degree Days 46    
Moisture  
Dew Point 9 °F    
Average Humidity 64    
Maximum Humidity 86    
Minimum Humidity 24    
Precipitation  
Precipitation 0.00 in - - ()
Sea Level Pressure  
Sea Level Pressure 29.77 in    
Wind  
Wind Speed 7 mph (SSW)    
Max Wind Speed 21 mph    
Max Gust Speed 26 mph    
Visibility 10 miles    
Events      
Averages and records for this station are not official NWS values.
T = Trace of Precipitation, MM = Missing Value Source: NWS Daily Summary

Daily Weather History Graph

Daily Weather History Graph

Search for Another Location

Airport or City:

Trip Planner

Search our weather history database for the weather conditions in past years. The results will help you decide how hot, cold, wet, or windy it might be!

Date:

Astronomy

Mar. 15, 2013 Rise Set
Actual Time 8:48 AM AKDT 8:38 PM AKDT
Civil Twilight 8:10 AM AKDT 9:16 PM AKDT
Nautical Twilight 7:26 AM AKDT 10:01 PM AKDT
Astronomical Twilight 6:39 AM AKDT 10:49 PM AKDT
Moon 9:53 AM AKDT (3/15) 12:54 AM AKDT (3/15)
Length of Visible Light 13h 06m
Length of Day
11h 50m
Waxing Crescent, 16% of the Moon is Illuminated
Mar 15
Waxing Crescent
Mar 19
First Quarter
Mar 27
Full
Apr 2
Last Quarter
Apr 10
New

Hourly Weather History & Observations

Time (AKDT) Temp. Windchill Dew Point Humidity Pressure Visibility Wind Dir Wind Speed Gust Speed Precip Events Conditions
12:16 AM 12.2 °F 6.1 °F 3.2 °F 67% 29.73 in 10.0 mi ESE 3.5 mph - N/A   Mostly Cloudy
12:36 AM 12.2 °F 6.1 °F 6.8 °F 79% 29.74 in 10.0 mi ESE 3.5 mph - N/A   Mostly Cloudy
12:56 AM 12.2 °F 6.1 °F 6.8 °F 79% 29.74 in 10.0 mi ESE 3.5 mph - N/A   Mostly Cloudy
1:16 AM 12.2 °F 2.9 °F 5.0 °F 73% 29.74 in 10.0 mi SSE 5.8 mph - N/A   Overcast
1:36 AM 15.8 °F 5.1 °F 12.2 °F 86% 29.74 in 9.0 mi SSE 8.1 mph - N/A   Overcast
1:56 AM 17.6 °F 7.3 °F 14.0 °F 86% 29.73 in 9.0 mi SSW 8.1 mph - N/A   Overcast
2:16 AM 17.6 °F 9.3 °F 10.4 °F 73% 29.74 in 10.0 mi South 5.8 mph - N/A   Scattered Clouds
2:36 AM 15.8 °F 8.6 °F 12.2 °F 86% 29.74 in 10.0 mi East 4.6 mph - N/A   Mostly Cloudy
2:56 AM 15.8 °F 8.6 °F 12.2 °F 86% 29.73 in 10.0 mi ENE 4.6 mph - N/A   Overcast
3:16 AM 17.6 °F - 12.2 °F 79% 29.73 in 10.0 mi Calm Calm - N/A   Overcast
3:36 AM 19.4 °F - 12.2 °F 74% 29.74 in 10.0 mi Calm Calm - N/A   Overcast
3:56 AM 19.4 °F 14.3 °F 10.4 °F 68% 29.75 in 3.0 mi SSW 3.5 mph - N/A   Overcast
4:16 AM 19.4 °F 14.3 °F 15.8 °F 86% 29.75 in 5.0 mi West 3.5 mph - N/A   Overcast
4:36 AM 19.4 °F 3.2 °F 14.0 °F 80% 29.75 in 2.5 mi WNW 20.7 mph 26.5 mph N/A   Overcast
4:56 AM 19.4 °F 3.2 °F 14.0 °F 80% 29.76 in 5.0 mi WNW 20.7 mph - N/A   Overcast
5:16 AM 19.4 °F 5.5 °F 12.2 °F 74% 29.76 in 9.0 mi WNW 15.0 mph - N/A   Overcast
5:36 AM 19.4 °F 6.0 °F 15.8 °F 86% 29.77 in 10.0 mi WNW 13.8 mph - N/A   Overcast
5:56 AM 19.4 °F 3.6 °F 12.2 °F 74% 29.78 in 10.0 mi West 19.6 mph - N/A   Mostly Cloudy
6:16 AM 19.4 °F 4.1 °F 10.4 °F 68% 29.78 in 7.0 mi West 18.4 mph - N/A   Overcast
6:36 AM 17.6 °F 2.2 °F 10.4 °F 73% 29.79 in 10.0 mi West 17.3 mph - N/A   Overcast
6:56 AM 17.6 °F 3.7 °F 8.6 °F 68% 29.79 in 10.0 mi West 13.8 mph - N/A   Overcast
7:16 AM 17.6 °F 3.2 °F 6.8 °F 63% 29.80 in 10.0 mi West 15.0 mph - N/A   Overcast
7:36 AM 15.8 °F -0.2 °F 5.0 °F 62% 29.80 in 10.0 mi West 17.3 mph - N/A   Mostly Cloudy
7:56 AM 15.8 °F 2.1 °F 6.8 °F 68% 29.80 in 10.0 mi WSW 12.7 mph - N/A   Mostly Cloudy
8:16 AM 15.8 °F 2.1 °F 6.8 °F 68% 29.81 in 10.0 mi WSW 12.7 mph - N/A   Overcast
8:36 AM 17.6 °F 6.4 °F 6.8 °F 63% 29.81 in 10.0 mi West 9.2 mph - N/A   Overcast
8:56 AM 15.8 °F 6.1 °F 5.0 °F 62% 29.81 in 10.0 mi West 6.9 mph - N/A   Overcast
9:16 AM 17.6 °F 6.4 °F 6.8 °F 63% 29.81 in 10.0 mi West 9.2 mph - N/A   Overcast
9:36 AM 17.6 °F 7.3 °F 6.8 °F 63% 29.81 in 10.0 mi West 8.1 mph - N/A   Overcast
9:56 AM 17.6 °F 5.7 °F 8.6 °F 68% 29.82 in 10.0 mi WSW 10.4 mph 16.1 mph N/A   Overcast
10:16 AM 17.6 °F 5.7 °F 6.8 °F 63% 29.83 in 10.0 mi WSW 10.4 mph - N/A   Overcast
10:36 AM 17.6 °F 6.4 °F 6.8 °F 63% 29.82 in 10.0 mi WSW 9.2 mph - N/A   Overcast
10:56 AM 17.6 °F 8.2 °F 8.6 °F 68% 29.82 in 10.0 mi WSW 6.9 mph - N/A   Overcast
11:16 AM 19.4 °F 10.4 °F 6.8 °F 58% 29.82 in 10.0 mi WSW 6.9 mph - N/A   Overcast
11:36 AM 19.4 °F 10.4 °F 8.6 °F 63% 29.82 in 10.0 mi WSW 6.9 mph - N/A   Overcast
11:56 AM 19.4 °F 10.4 °F 8.6 °F 63% 29.82 in 10.0 mi WSW 6.9 mph - N/A   Overcast
12:16 PM 19.4 °F 8.6 °F 10.4 °F 68% 29.82 in 10.0 mi SW 9.2 mph - N/A   Overcast
12:36 PM 19.4 °F 8.6 °F 10.4 °F 68% 29.82 in 10.0 mi SW 9.2 mph - N/A   Overcast
12:56 PM 19.4 °F 7.9 °F 10.4 °F 68% 29.82 in 9.0 mi SW 10.4 mph - N/A   Overcast
1:16 PM 19.4 °F 10.4 °F 10.4 °F 68% 29.81 in 10.0 mi SW 6.9 mph - N/A   Overcast
1:36 PM 19.4 °F 10.4 °F 12.2 °F 74% 29.81 in 10.0 mi SSW 6.9 mph - N/A   Overcast
1:56 PM 19.4 °F 9.5 °F 8.6 °F 63% 29.81 in 10.0 mi South 8.1 mph - N/A   Mostly Cloudy
2:16 PM 21.2 °F 14.9 °F 10.4 °F 63% 29.81 in 10.0 mi SSW 4.6 mph - N/A   Mostly Cloudy
2:36 PM 21.2 °F 12.6 °F 10.4 °F 63% 29.81 in 10.0 mi SSW 6.9 mph - N/A   Mostly Cloudy
2:56 PM 21.2 °F 10.9 °F 10.4 °F 63% 29.81 in 10.0 mi South 9.2 mph - N/A   Mostly Cloudy
3:16 PM 19.4 °F 12.8 °F 10.4 °F 68% 29.80 in 10.0 mi South 4.6 mph - N/A   Mostly Cloudy
3:36 PM 19.4 °F 12.8 °F 8.6 °F 63% 29.79 in 10.0 mi SSE 4.6 mph - N/A   Partly Cloudy
3:56 PM 21.2 °F 13.6 °F 8.6 °F 58% 29.79 in 10.0 mi SSE 5.8 mph - N/A   Mostly Cloudy
4:16 PM 21.2 °F 13.6 °F 10.4 °F 63% 29.78 in 10.0 mi SE 5.8 mph - N/A   Mostly Cloudy
4:36 PM 21.2 °F 12.6 °F 6.8 °F 54% 29.77 in 10.0 mi SE 6.9 mph - N/A   Mostly Cloudy
4:56 PM 21.2 °F 11.7 °F 6.8 °F 54% 29.75 in 10.0 mi East 8.1 mph - N/A   Mostly Cloudy
5:16 PM 21.2 °F 16.4 °F 6.8 °F 54% 29.76 in 10.0 mi ESE 3.5 mph - N/A   Overcast
5:36 PM 21.2 °F 16.4 °F 6.8 °F 54% 29.76 in 10.0 mi NNE 3.5 mph - N/A   Overcast
5:56 PM 21.2 °F 14.9 °F 6.8 °F 54% 29.77 in 10.0 mi ENE 4.6 mph - N/A   Overcast
6:16 PM 21.2 °F 13.6 °F 8.6 °F 58% 29.76 in 10.0 mi ENE 5.8 mph - N/A   Mostly Cloudy
6:36 PM 21.2 °F 14.9 °F 8.6 °F 58% 29.76 in 10.0 mi ENE 4.6 mph - N/A   Mostly Cloudy
6:56 PM 21.2 °F 13.6 °F 5.0 °F 50% 29.75 in 10.0 mi NE 5.8 mph - N/A   Overcast
7:16 PM 23.0 °F 13.9 °F 8.6 °F 54% 29.74 in 10.0 mi NE 8.1 mph - N/A   Mostly Cloudy
7:36 PM 23.0 °F 13.9 °F 8.6 °F 54% 29.73 in 10.0 mi ENE 8.1 mph - N/A   Overcast
7:56 PM 23.0 °F 14.7 °F 8.6 °F 54% 29.72 in 10.0 mi ENE 6.9 mph - N/A   Overcast
8:16 PM 21.2 °F 13.6 °F 8.6 °F 58% 29.73 in 10.0 mi ENE 5.8 mph - N/A   Mostly Cloudy
8:36 PM 21.2 °F 12.6 °F 8.6 °F 58% 29.73 in 10.0 mi East 6.9 mph - N/A   Overcast
9:56 PM 24.8 °F - 3.2 °F 40% 29.72 in 10.0 mi Calm Calm - N/A   Overcast
10:16 PM 24.8 °F - 6.8 °F 46% 29.73 in 10.0 mi Calm Calm - N/A   Overcast
10:36 PM 24.8 °F 20.5 °F 3.2 °F 40% 29.72 in 10.0 mi NE 3.5 mph - N/A   Overcast
10:56 PM 26.6 °F - 5.0 °F 40% 29.72 in 10.0 mi Calm Calm - N/A   Overcast
11:16 PM 26.6 °F 21.2 °F 5.0 °F 40% 29.72 in 10.0 mi ESE 4.6 mph - N/A   Overcast
11:36 PM 26.6 °F 21.2 °F 12.2 °F 55% 29.72 in 10.0 mi SE 4.6 mph - N/A   Overcast
11:56 PM 30.2 °F 20.2 °F 19.4 °F 64% 29.72 in 10.0 mi SSE 12.7 mph - N/A   Overcast